• In Hungary
  • List of Countries
  • For 7 days
  • Water Temperature
  • Satellite Maps
  • Weather Map
  • News
  • Weather Widgets
  • user-avatar
    Login

    Hourly Weather Vratsa

    Today, 14 December, Thursday

    Time Temperature Precipitation Wind Pressure Humidity
    00:00 +7°C° 0.1 mm 1 mps 706 mmHg 85%
    01:00 +6°C° 0.1 mm 1 mps 705 mmHg 86%
    02:00 +6°C° 0 mm 1 mps 705 mmHg 85%
    03:00 +6°C° 0.1 mm 1 mps 705 mmHg 86%
    04:00 +6°C° 0.1 mm 1 mps 705 mmHg 87%
    05:00 +5°C° 0.1 mm 1 mps 705 mmHg 87%
    06:00 +5°C° 0 mm 1 mps 705 mmHg 87%
    07:00 +5°C° 0 mm 1 mps 705 mmHg 88%
    08:00 +5°C° 0 mm 1 mps 704 mmHg 88%
    09:00 +6°C° 0 mm 1 mps 705 mmHg 82%
    10:00 +7°C° 0 mm 2 mps 705 mmHg 75%
    11:00 +8°C° 0 mm 2 mps 705 mmHg 69%
    12:00 +9°C° 0 mm 2 mps 705 mmHg 65%
    13:00 +10°C° 0 mm 2 mps 705 mmHg 61%
    14:00 +12°C° 0 mm 2 mps 705 mmHg 57%
    15:00 +10°C° 0 mm 2 mps 705 mmHg 61%
    16:00 +8°C° 0 mm 2 mps 705 mmHg 66%
    17:00 +8°C° 0 mm 1 mps 705 mmHg 70%
    18:00 +8°C° 0 mm 1 mps 705 mmHg 71%
    19:00 +6°C° 0 mm 2 mps 705 mmHg 72%
    20:00 +6°C° 0 mm 2 mps 705 mmHg 74%
    21:00 +6°C° 0 mm 2 mps 705 mmHg 73%
    22:00 +5°C° 0 mm 2 mps 705 mmHg 73%
    23:00 +5°C° 0 mm 2 mps 705 mmHg 73%

    Tomorrow, 15 December, Friday

    Time Temperature Precipitation Wind Pressure Humidity
    00:00 +5°C° 0 mm 2 mps 705 mmHg 72%
    01:00 +5°C° 0 mm 2 mps 705 mmHg 72%
    02:00 +5°C° 0 mm 2 mps 704 mmHg 71%
    03:00 +5°C° 0 mm 2 mps 704 mmHg 71%
    04:00 +4°C° 0 mm 2 mps 704 mmHg 71%
    05:00 +4°C° 0 mm 2 mps 704 mmHg 70%
    06:00 +4°C° 0 mm 2 mps 704 mmHg 70%
    07:00 +4°C° 0 mm 2 mps 705 mmHg 70%
    08:00 +4°C° 0 mm 2 mps 705 mmHg 70%
    09:00 +6°C° 0 mm 2 mps 705 mmHg 66%
    10:00 +7°C° 0 mm 2 mps 705 mmHg 61%
    11:00 +9°C° 0 mm 2 mps 705 mmHg 56%
    12:00 +10°C° 0 mm 2 mps 705 mmHg 55%
    13:00 +12°C° 0 mm 2 mps 704 mmHg 54%
    14:00 +13°C° 0 mm 2 mps 704 mmHg 52%
    15:00 +12°C° 0.1 mm 2 mps 704 mmHg 57%
    16:00 +10°C° 0.1 mm 2 mps 704 mmHg 62%
    17:00 +9°C° 0.1 mm 2 mps 703 mmHg 66%
    18:00 +8°C° 0.1 mm 2 mps 703 mmHg 68%
    19:00 +8°C° 0.1 mm 2 mps 703 mmHg 69%
    20:00 +8°C° 0.1 mm 2 mps 703 mmHg 71%
    21:00 +7°C° 0 mm 2 mps 702 mmHg 71%
    22:00 +7°C° 0 mm 3 mps 702 mmHg 71%
    23:00 +7°C° 0 mm 3 mps 701 mmHg 71%

    Day after tomorrow, 16 December, Saturday

    Time Temperature Precipitation Wind Pressure Humidity
    00:00 +7°C° 0 mm 3 mps 701 mmHg 71%
    01:00 +7°C° 0 mm 3 mps 701 mmHg 71%
    02:00 +5°C° 0 mm 3 mps 701 mmHg 70%
    03:00 +5°C° 0 mm 3 mps 701 mmHg 71%
    04:00 +5°C° 0 mm 3 mps 700 mmHg 71%
    05:00 +5°C° 0 mm 3 mps 700 mmHg 71%
    06:00 +5°C° 0 mm 3 mps 700 mmHg 71%
    07:00 +5°C° 0 mm 3 mps 700 mmHg 71%
    08:00 +5°C° 0 mm 3 mps 700 mmHg 72%
    09:00 +8°C° 0 mm 3 mps 700 mmHg 67%
    10:00 +9°C° 0 mm 3 mps 700 mmHg 63%
    11:00 +10°C° 0 mm 3 mps 700 mmHg 59%
    12:00 +11°C° 0 mm 3 mps 700 mmHg 58%
    13:00 +11°C° 0 mm 3 mps 700 mmHg 58%
    14:00 +12°C° 0 mm 3 mps 700 mmHg 57%
    15:00 +11°C° 0.2 mm 3 mps 700 mmHg 63%
    16:00 +10°C° 0.2 mm 3 mps 700 mmHg 70%
    17:00 +8°C° 0.2 mm 2 mps 700 mmHg 76%
    18:00 +8°C° 0.7 mm 2 mps 700 mmHg 80%
    19:00 +7°C° 0.7 mm 2 mps 700 mmHg 85%
    20:00 +6°C° 0.7 mm 2 mps 701 mmHg 89%
    21:00 +6°C° 1.2 mm 2 mps 700 mmHg 90%
    22:00 +5°C° 1.2 mm 2 mps 700 mmHg 90%
    23:00 +4°C° 1.2 mm 3 mps 700 mmHg 91%

    17 December, Sunday

    Time Temperature Precipitation Wind Pressure Humidity
    00:00 +3°C° 1.6 mm 3 mps 700 mmHg 90%
    01:00 +3°C° 1.6 mm 3 mps 700 mmHg 88%
    02:00 +3°C° 1.6 mm 4 mps 700 mmHg 87%
    03:00 +1°C° 1.4 mm 4 mps 700 mmHg 86%
    04:00 +1°C° 1.4 mm 4 mps 700 mmHg 84%
    05:00 +1°C° 1.4 mm 4 mps 700 mmHg 83%
    06:00 +1°C° 0.6 mm 4 mps 701 mmHg 83%
    07:00 +1°C° 0.6 mm 4 mps 702 mmHg 83%
    08:00 0°C° 0.6 mm 4 mps 702 mmHg 82%
    09:00 +1°C° 0.2 mm 4 mps 703 mmHg 80%
    10:00 +1°C° 0.2 mm 4 mps 703 mmHg 77%
    11:00 +1°C° 0.2 mm 4 mps 704 mmHg 74%
    12:00 +1°C° 0 mm 5 mps 704 mmHg 72%
    13:00 +1°C° 0 mm 5 mps 705 mmHg 69%
    14:00 +1°C° 0 mm 5 mps 705 mmHg 67%
    15:00 +1°C° 0 mm 4 mps 705 mmHg 69%
    16:00 0°C° 0 mm 4 mps 706 mmHg 72%
    17:00 0°C° 0 mm 3 mps 706 mmHg 75%
    18:00 -1°C° 0 mm 3 mps 707 mmHg 76%
    19:00 -1°C° 0 mm 3 mps 707 mmHg 77%
    20:00 -1°C° 0 mm 3 mps 708 mmHg 78%
    21:00 -1°C° 0 mm 3 mps 708 mmHg 78%
    22:00 -1°C° 0 mm 3 mps 709 mmHg 79%
    23:00 -1°C° 0 mm 3 mps 709 mmHg 79%

    18 December, Monday

    Time Temperature Precipitation Wind Pressure Humidity
    00:00 -1°C° 0 mm 3 mps 710 mmHg 79%
    01:00 -1°C° 0 mm 3 mps 710 mmHg 79%
    02:00 -2°C° 0 mm 3 mps 710 mmHg 80%
    03:00 -2°C° 0.1 mm 3 mps 710 mmHg 80%
    04:00 -2°C° 0.1 mm 3 mps 710 mmHg 80%
    05:00 -2°C° 0.1 mm 3 mps 711 mmHg 80%
    06:00 -2°C° 0 mm 3 mps 711 mmHg 80%
    07:00 -4°C° 0 mm 3 mps 711 mmHg 80%
    08:00 -4°C° 0 mm 3 mps 712 mmHg 80%
    09:00 -2°C° 0 mm 3 mps 712 mmHg 75%
    10:00 -3°C° 0 mm 4 mps 712 mmHg 71%
    11:00 -2°C° 0 mm 4 mps 712 mmHg 66%
    12:00 -2°C° 0 mm 4 mps 712 mmHg 64%
    13:00 -2°C° 0 mm 4 mps 712 mmHg 63%
    14:00 -1°C° 0 mm 4 mps 711 mmHg 62%
    15:00 -1°C° 0 mm 3 mps 711 mmHg 65%
    16:00 -2°C° 0 mm 3 mps 711 mmHg 68%
    17:00 -2°C° 0 mm 2 mps 711 mmHg 72%
    18:00 -3°C° 0 mm 2 mps 711 mmHg 74%
    19:00 -3°C° 0 mm 2 mps 711 mmHg 76%
    20:00 -2°C° 0 mm 1 mps 711 mmHg 78%
    21:00 -4°C° 0 mm 2 mps 711 mmHg 78%
    22:00 -4°C° 0 mm 2 mps 711 mmHg 78%
    23:00 -4°C° 0 mm 2 mps 712 mmHg 78%

    19 December, Tuesday

    Time Temperature Precipitation Wind Pressure Humidity
    00:00 -4°C° 0 mm 2 mps 712 mmHg 77%
    01:00 -4°C° 0 mm 2 mps 712 mmHg 75%
    02:00 -4°C° 0 mm 2 mps 712 mmHg 74%
    03:00 -4°C° 0 mm 2 mps 712 mmHg 73%
    04:00 -2°C° 0 mm 1 mps 712 mmHg 71%
    05:00 -2°C° 0 mm 1 mps 712 mmHg 70%
    06:00 -2°C° 0 mm 1 mps 712 mmHg 69%
    07:00 -2°C° 0 mm 1 mps 712 mmHg 68%
    08:00 -2°C° 0 mm 1 mps 713 mmHg 67%
    09:00 -1°C° 0 mm 1 mps 713 mmHg 62%
    10:00 +1°C° 0 mm 1 mps 713 mmHg 57%
    11:00 +2°C° 0 mm 1 mps 714 mmHg 52%
    12:00 +2°C° 0 mm 1 mps 713 mmHg 52%
    13:00 +3°C° 0 mm 1 mps 713 mmHg 52%
    14:00 +3°C° 0 mm 1 mps 713 mmHg 51%
    15:00 +2°C° 0.1 mm 1 mps 713 mmHg 57%
    16:00 +2°C° 0.1 mm 1 mps 713 mmHg 63%
    17:00 +1°C° 0.1 mm 1 mps 713 mmHg 69%
    18:00 0°C° 0.1 mm 1 mps 713 mmHg 72%
    19:00 0°C° 0.1 mm 1 mps 713 mmHg 74%
    20:00 -1°C° 0.1 mm 0 mps 713 mmHg 77%
    21:00 -1°C° 0.1 mm 0 mps 714 mmHg 78%
    22:00 0°C° 0.1 mm 1 mps 714 mmHg 80%
    23:00 0°C° 0.1 mm 1 mps 714 mmHg 81%
    Show more